SWR550 LSZH-LGMK

Flight info

Callsign SWR550
Flight time N/A
Altitude 36000
Route LSZH/16 N0447F350 DEGE2R DEGES Z2 XEBIX L607 ELMEM N606 GIRIS DCT TISAX DCT NAXAV DCT NIVAS DCT UPIRO DCT PEVAL DCT LOS DCT EBITA DCT ZDA DCT SPL/N0452F370 DCT KONUV DCT LASTI DCT LEBGA DCT PETAK DCT PINDO UL607 KEA UL995 VARIX VARI1H LGMK/34
Aircraft A320/M-V/N

Departure

Time 2026-04-30 20:47
Airport Zürich Airport (LSZH)

Arrival

Time N/A
Airport Mykonos Island National Airport (LGMK)
Time Latitude Longitude Altitude Speed Heading
2026-04-30 20:17 47.45350 8.55755 1410 ft 0 kts
2026-04-30 20:34 47.45331 8.55752 1387 ft 2 kts
2026-04-30 20:34 47.45297 8.55747 1413 ft 2 kts
2026-04-30 20:35 47.45280 8.55745 1413 ft 2 kts 324°
2026-04-30 20:35 47.45272 8.55758 1409 ft 0 kts 279°
2026-04-30 20:37 47.45273 8.55728 1409 ft 6 kts 269°
2026-04-30 20:37 47.45271 8.55674 1406 ft 6 kts 269°
2026-04-30 20:37 47.45277 8.55583 1409 ft 9 kts 281°
2026-04-30 20:37 47.45323 8.55536 1411 ft 9 kts 345°
2026-04-30 20:38 47.45396 8.55496 1410 ft 13 kts 336°
2026-04-30 20:38 47.45477 8.55441 1405 ft 11 kts 334°
2026-04-30 20:38 47.45552 8.55388 1403 ft 13 kts 335°
2026-04-30 20:39 47.45671 8.55397 1400 ft 12 kts 91°
2026-04-30 20:39 47.45662 8.55517 1402 ft 12 kts 96°
2026-04-30 20:39 47.45654 8.55636 1404 ft 11 kts 95°
2026-04-30 20:40 47.45638 8.55870 1408 ft 13 kts 96°
2026-04-30 20:40 47.45628 8.56006 1410 ft 13 kts 96°
2026-04-30 20:40 47.45618 8.56143 1413 ft 13 kts 96°
2026-04-30 20:41 47.45628 8.56253 1414 ft 0 kts 49°
2026-04-30 20:41 47.45632 8.56257 1414 ft 4 kts 40°
2026-04-30 20:42 47.45695 8.56279 1413 ft 10 kts
2026-04-30 20:42 47.45768 8.56288 1418 ft 11 kts
2026-04-30 20:42 47.45898 8.56305 1413 ft 0 kts
2026-04-30 20:43 47.45902 8.56306 1413 ft 1 kts
2026-04-30 20:43 47.45941 8.56313 1412 ft 10 kts
2026-04-30 20:43 47.46017 8.56324 1411 ft 6 kts
2026-04-30 20:44 47.46019 8.56325 1411 ft 0 kts
2026-04-30 20:44 47.46031 8.56327 1411 ft 6 kts
2026-04-30 20:45 47.46151 8.56350 1410 ft 6 kts
2026-04-30 20:45 47.46187 8.56352 1409 ft 4 kts 354°
2026-04-30 20:45 47.46210 8.56336 1412 ft 3 kts 326°
2026-04-30 20:46 47.46230 8.56313 1408 ft 25 kts 320°
2026-04-30 20:46 47.46563 8.55862 1396 ft 100 kts 317°
2026-04-30 20:47 47.48090 8.53763 1701 ft 174 kts 320°
2026-04-30 20:47 47.48986 8.52552 2354 ft 174 kts 323°
2026-04-30 20:48 47.51237 8.50526 3270 ft 215 kts 338°
2026-04-30 20:48 47.52525 8.49241 4074 ft 235 kts 316°
2026-04-30 20:48 47.53355 8.47101 5056 ft 246 kts 285°
2026-04-30 20:48 47.53486 8.44610 6185 ft 249 kts 262°
2026-04-30 20:49 47.52920 8.42188 7122 ft 249 kts 242°
2026-04-30 20:49 47.52155 8.39899 8332 ft 249 kts 242°
2026-04-30 20:49 47.51141 8.37830 9281 ft 251 kts 212°
2026-04-30 20:50 47.47920 8.37691 11031 ft 246 kts 140°
2026-04-30 20:50 47.46854 8.39618 11602 ft 244 kts 116°
2026-04-30 20:50 47.46107 8.41873 12246 ft 244 kts 107°
2026-04-30 20:50 47.45737 8.44374 12666 ft 256 kts 92°
2026-04-30 20:51 47.45720 8.47114 12827 ft 279 kts 89°
2026-04-30 20:51 47.45726 8.53307 13114 ft 324 kts 89°
2026-04-30 20:51 47.45749 8.56736 13249 ft 344 kts 87°
2026-04-30 20:52 47.45849 8.60342 13629 ft 355 kts 86°
2026-04-30 20:52 47.45993 8.64009 14207 ft 359 kts 85°
2026-04-30 20:52 47.46308 8.71421 15396 ft 364 kts 85°
2026-04-30 20:53 47.46463 8.75170 15964 ft 366 kts 85°
2026-04-30 20:53 47.46610 8.78934 16558 ft 368 kts 85°
2026-04-30 20:53 47.46578 8.82779 17174 ft 372 kts 94°
2026-04-30 20:54 47.45548 8.90294 18327 ft 378 kts 99°
2026-04-30 20:54 47.44997 8.94101 18828 ft 381 kts 99°
2026-04-30 20:54 47.44448 8.97944 19326 ft 384 kts 99°
2026-04-30 20:55 47.43342 9.05718 20288 ft 390 kts 99°
2026-04-30 20:55 47.42777 9.09645 20758 ft 392 kts 99°
2026-04-30 20:55 47.42203 9.13600 21207 ft 395 kts 99°
2026-04-30 20:56 47.41655 9.21623 22102 ft 395 kts 83°
2026-04-30 20:56 47.42071 9.25622 22530 ft 395 kts 75°
2026-04-30 20:56 47.43302 9.33586 23357 ft 400 kts 75°
2026-04-30 20:57 47.43909 9.37607 23752 ft 403 kts 75°
2026-04-30 20:57 47.44519 9.41661 24093 ft 405 kts 75°
2026-04-30 20:57 47.45130 9.45728 24432 ft 407 kts 75°
2026-04-30 20:58 47.46353 9.53905 25147 ft 409 kts 75°
2026-04-30 20:58 47.46935 9.58033 25484 ft 412 kts 79°
2026-04-30 20:58 47.47139 9.62274 25808 ft 416 kts 88°
2026-04-30 20:58 47.46925 9.66567 26179 ft 418 kts 91°
2026-04-30 20:59 47.46434 9.75150 26827 ft 420 kts 91°
2026-04-30 20:59 47.46199 9.79458 27130 ft 421 kts 90°
2026-04-30 21:00 47.45735 9.88062 27733 ft 423 kts 90°
2026-04-30 21:00 47.45261 9.96770 28273 ft 425 kts 90°
2026-04-30 21:01 47.44758 10.05502 28831 ft 427 kts 90°
2026-04-30 21:01 47.44498 10.09866 29150 ft 427 kts 90°
2026-04-30 21:01 47.43938 10.18610 29670 ft 429 kts 94°
2026-04-30 21:02 47.43376 10.22949 30030 ft 429 kts 96°
2026-04-30 21:02 47.42795 10.27259 30387 ft 427 kts 96°
2026-04-30 21:02 47.42217 10.31563 30638 ft 426 kts 96°
2026-04-30 21:02 47.41643 10.35844 30832 ft 426 kts 96°
2026-04-30 21:03 47.40934 10.40107 31082 ft 431 kts 103°
2026-04-30 21:03 47.39701 10.44162 31355 ft 439 kts 114°
2026-04-30 21:03 47.37910 10.47871 31641 ft 448 kts 125°
2026-04-30 21:03 47.35634 10.51058 31974 ft 457 kts 135°
2026-04-30 21:04 47.32928 10.53627 32227 ft 467 kts 144°
2026-04-30 21:04 47.30073 10.55917 32472 ft 468 kts 144°
2026-04-30 21:04 47.24328 10.60450 32949 ft 469 kts 145°
2026-04-30 21:05 47.21444 10.62712 33190 ft 469 kts 145°
2026-04-30 21:05 47.18573 10.64965 33432 ft 468 kts 145°
2026-04-30 21:05 47.15591 10.66979 33612 ft 475 kts 153°
2026-04-30 21:05 47.12496 10.68673 33828 ft 475 kts 153°
2026-04-30 21:06 47.09397 10.70367 34051 ft 475 kts 153°
2026-04-30 21:06 47.06296 10.72064 34229 ft 475 kts 153°
2026-04-30 21:06 47.00081 10.75475 34247 ft 478 kts 153°
2026-04-30 21:07 46.93873 10.78981 34257 ft 478 kts 152°
2026-04-30 21:07 46.87663 10.82509 34251 ft 477 kts 152°
2026-04-30 21:08 46.81459 10.86024 34259 ft 478 kts 151°
2026-04-30 21:08 46.75804 10.90710 34257 ft 461 kts 134°
2026-04-30 21:09 46.71185 10.97027 34277 ft 455 kts 127°
2026-04-30 21:09 46.66688 11.03454 34275 ft 458 kts 128°
2026-04-30 21:10 46.62127 11.09924 34287 ft 459 kts 128°
2026-04-30 21:10 46.57552 11.16410 34292 ft 460 kts 128°
2026-04-30 21:11 46.52971 11.22908 34296 ft 460 kts 128°
2026-04-30 21:11 46.48394 11.29396 34274 ft 460 kts 128°
2026-04-30 21:12 46.44085 11.36196 34273 ft 455 kts 122°
2026-04-30 21:12 46.40020 11.43222 34318 ft 455 kts 123°
2026-04-30 21:13 46.35917 11.50285 34319 ft 458 kts 123°
2026-04-30 21:13 46.31799 11.57343 34331 ft 459 kts 123°
2026-04-30 21:14 46.27679 11.64403 34326 ft 459 kts 123°
2026-04-30 21:14 46.23551 11.71461 34328 ft 460 kts 123°
2026-04-30 21:15 46.20125 11.77317 34334 ft 459 kts 123°
2026-04-30 21:15 46.15994 11.84345 34342 ft 459 kts 123°
2026-04-30 21:16 46.11856 11.91355 34336 ft 459 kts 123°
2026-04-30 21:16 46.07711 11.98370 34383 ft 460 kts 123°
2026-04-30 21:17 46.03556 12.05382 34342 ft 460 kts 123°
2026-04-30 21:17 45.99395 12.12392 34336 ft 460 kts 124°
2026-04-30 21:18 45.95234 12.19381 34336 ft 460 kts 124°
2026-04-30 21:18 45.91049 12.26378 34334 ft 461 kts 124°
2026-04-30 21:19 45.86872 12.33390 34333 ft 463 kts 124°
2026-04-30 21:19 45.82710 12.40444 34328 ft 464 kts 124°
2026-04-30 21:20 45.78541 12.47501 34326 ft 464 kts 124°
2026-04-30 21:20 45.74354 12.54543 34326 ft 464 kts 124°
2026-04-30 21:21 45.70164 12.61568 34324 ft 464 kts 124°
2026-04-30 21:22 45.63867 12.72116 34327 ft 466 kts 125°
2026-04-30 21:23 45.55324 12.86039 34326 ft 468 kts 126°
2026-04-30 21:23 45.48830 12.96426 34338 ft 468 kts 127°
2026-04-30 21:24 45.44523 13.03353 34330 ft 468 kts 126°
2026-04-30 21:24 45.40190 13.10306 34343 ft 469 kts 127°
2026-04-30 21:25 45.33656 13.20734 34336 ft 471 kts 127°
2026-04-30 21:26 45.27114 13.31157 34342 ft 471 kts 127°
2026-04-30 21:27 45.20580 13.41577 34339 ft 471 kts 127°
2026-04-30 21:27 45.16207 13.48507 34334 ft 472 kts 128°
2026-04-30 21:28 45.09608 13.58933 34330 ft 474 kts 128°
2026-04-30 21:29 45.02988 13.69350 34337 ft 474 kts 128°
2026-04-30 21:30 44.91938 13.86665 34347 ft 476 kts 129°
2026-04-30 21:31 44.80789 14.04044 34329 ft 478 kts 129°
2026-04-30 21:32 44.74067 14.14452 34321 ft 478 kts 129°
2026-04-30 21:32 44.69578 14.21385 34319 ft 480 kts 130°
2026-04-30 21:33 44.62840 14.31761 34315 ft 482 kts 130°
2026-04-30 21:34 44.58312 14.38706 34315 ft 482 kts 130°
2026-04-30 21:34 44.51716 14.49354 34309 ft 480 kts 121°
2026-04-30 21:35 44.48016 14.57138 34311 ft 480 kts 121°
2026-04-30 21:35 44.44283 14.64906 34300 ft 481 kts 122°
2026-04-30 21:36 44.40535 14.72683 34309 ft 483 kts 122°
2026-04-30 21:37 44.33035 14.88257 34307 ft 483 kts 122°
2026-04-30 21:37 44.29270 14.96036 34307 ft 483 kts 122°
2026-04-30 21:38 44.25519 15.03740 34304 ft 483 kts 122°
2026-04-30 21:38 44.21720 15.11532 34310 ft 482 kts 122°
2026-04-30 21:39 44.17948 15.19249 34296 ft 482 kts 122°
2026-04-30 21:39 44.14168 15.26974 34302 ft 484 kts 123°
2026-04-30 21:40 44.10392 15.34668 34301 ft 485 kts 123°
2026-04-30 21:40 44.06102 15.41915 34303 ft 486 kts 130°
2026-04-30 21:41 44.01651 15.48975 34300 ft 486 kts 130°
2026-04-30 21:41 43.97205 15.56037 34299 ft 486 kts 130°
2026-04-30 21:42 43.92757 15.63086 34294 ft 486 kts 130°
2026-04-30 21:42 43.88280 15.70157 34289 ft 489 kts 131°
2026-04-30 21:43 43.83781 15.77247 34281 ft 490 kts 131°
2026-04-30 21:43 43.79274 15.84326 34283 ft 490 kts 131°
2026-04-30 21:44 43.74768 15.91422 34288 ft 490 kts 131°
2026-04-30 21:44 43.70255 15.98483 34281 ft 490 kts 131°
2026-04-30 21:45 43.65738 16.05526 34281 ft 489 kts 131°
2026-04-30 21:45 43.61225 16.12544 34277 ft 489 kts 131°
2026-04-30 21:46 43.56710 16.19559 34275 ft 489 kts 131°
2026-04-30 21:46 43.52188 16.26566 34275 ft 489 kts 132°
2026-04-30 21:47 43.47995 16.33911 34274 ft 488 kts 123°
2026-04-30 21:47 43.44246 16.41720 34274 ft 489 kts 123°
2026-04-30 21:48 43.40488 16.49528 34244 ft 490 kts 123°
2026-04-30 21:48 43.36701 16.57366 34249 ft 493 kts 123°
2026-04-30 21:49 43.32915 16.65155 34248 ft 493 kts 123°
2026-04-30 21:49 43.29100 16.72998 34251 ft 493 kts 123°
2026-04-30 21:50 43.25296 16.80814 34248 ft 492 kts 124°
2026-04-30 21:50 43.21485 16.88601 34264 ft 492 kts 124°
2026-04-30 21:51 43.17667 16.96385 34263 ft 492 kts 124°
2026-04-30 21:51 43.13842 17.04172 34261 ft 492 kts 124°
2026-04-30 21:52 43.10008 17.11964 34258 ft 495 kts 124°
2026-04-30 21:52 43.06145 17.19793 34252 ft 496 kts 124°
2026-04-30 21:53 43.02276 17.27600 34255 ft 496 kts 124°
2026-04-30 21:53 42.98401 17.35388 34257 ft 496 kts 124°
2026-04-30 21:54 42.95180 17.41869 34250 ft 497 kts 124°
2026-04-30 21:54 42.90631 17.50994 34245 ft 498 kts 125°
2026-04-30 21:55 42.87363 17.57527 34247 ft 498 kts 125°
2026-04-30 21:55 42.83471 17.65279 34236 ft 499 kts 125°
2026-04-30 21:56 42.79530 17.73102 34236 ft 501 kts 125°
2026-04-30 21:56 42.75586 17.80926 34232 ft 501 kts 125°
2026-04-30 21:57 42.71647 17.88751 34218 ft 501 kts 125°
2026-04-30 21:57 42.67690 17.96553 34213 ft 501 kts 126°
2026-04-30 21:58 42.63721 18.04332 34202 ft 501 kts 126°
2026-04-30 21:58 42.59755 18.12136 34195 ft 501 kts 126°
2026-04-30 21:59 42.55784 18.19921 34169 ft 502 kts 126°
2026-04-30 22:00 42.49775 18.31640 34189 ft 508 kts 126°
2026-04-30 22:00 42.43575 18.43446 34213 ft 518 kts 132°
2026-04-30 22:01 42.38632 18.50338 34214 ft 504 kts 137°
2026-04-30 22:01 42.33672 18.57002 34216 ft 501 kts 138°
2026-04-30 22:02 42.28715 18.63631 34190 ft 501 kts 138°
2026-04-30 22:02 42.23741 18.70280 34215 ft 504 kts 138°
2026-04-30 22:03 42.18744 18.76942 34202 ft 504 kts 138°
2026-04-30 22:03 42.13748 18.83582 34201 ft 504 kts 138°
2026-04-30 22:04 42.08784 18.90167 34205 ft 504 kts 139°
2026-04-30 22:05 42.01278 19.00123 34216 ft 507 kts 139°
2026-04-30 22:05 41.96232 19.06773 34202 ft 509 kts 139°
2026-04-30 22:06 41.91162 19.13425 34201 ft 509 kts 139°
2026-04-30 22:06 41.83576 19.23398 34187 ft 509 kts 139°
2026-04-30 22:07 41.78541 19.30054 34184 ft 508 kts 139°
2026-04-30 22:07 41.73478 19.36686 34182 ft 510 kts 139°
2026-04-30 22:08 41.68385 19.43295 34171 ft 510 kts 139°
2026-04-30 22:08 41.63329 19.49851 34165 ft 509 kts 139°
2026-04-30 22:09 41.58215 19.56472 34160 ft 508 kts 139°
2026-04-30 22:09 41.53145 19.63043 34152 ft 508 kts 139°
2026-04-30 22:10 41.48164 19.69480 34142 ft 507 kts 140°
2026-04-30 22:10 41.43083 19.76019 34139 ft 507 kts 140°
2026-04-30 22:11 41.35466 19.85773 34139 ft 505 kts 140°
2026-04-30 22:12 41.30398 19.92260 34141 ft 505 kts 140°
2026-04-30 22:12 41.25335 19.98728 34146 ft 505 kts 140°
2026-04-30 22:13 41.20273 20.05178 34143 ft 503 kts 141°
2026-04-30 22:13 41.15211 20.11612 34163 ft 503 kts 141°
2026-04-30 22:14 41.10156 20.18019 34163 ft 502 kts 141°
2026-04-30 22:14 41.05100 20.24414 34191 ft 502 kts 141°
2026-04-30 22:15 41.00047 20.30809 34176 ft 502 kts 141°
2026-04-30 22:15 40.94991 20.37189 34198 ft 502 kts 141°
2026-04-30 22:16 40.89924 20.43552 34192 ft 502 kts 141°
2026-04-30 22:17 40.79795 20.56219 34200 ft 501 kts 142°
2026-04-30 22:17 40.72203 20.65691 34168 ft 501 kts 142°
2026-04-30 22:18 40.64589 20.75159 34202 ft 503 kts 142°
2026-04-30 22:19 40.56951 20.84625 34202 ft 501 kts 142°
2026-04-30 22:20 40.49341 20.94044 34190 ft 500 kts 142°
2026-04-30 22:20 40.41605 21.03219 34196 ft 499 kts 145°
2026-04-30 22:21 40.36358 21.09151 34187 ft 498 kts 145°
2026-04-30 22:21 40.31116 21.15101 34195 ft 498 kts 145°
2026-04-30 22:22 40.25911 21.21083 34188 ft 498 kts 144°
2026-04-30 22:22 40.20713 21.27064 34188 ft 498 kts 145°
2026-04-30 22:23 40.15497 21.33038 34189 ft 499 kts 144°
2026-04-30 22:23 40.10263 21.38999 34186 ft 499 kts 145°
2026-04-30 22:24 40.05027 21.44945 34181 ft 499 kts 144°
2026-04-30 22:24 39.99795 21.50896 34182 ft 499 kts 144°
2026-04-30 22:25 39.97183 21.53862 33932 ft 497 kts 145°
2026-04-30 22:25 39.94577 21.56815 33755 ft 497 kts 145°
2026-04-30 22:25 39.91965 21.59765 33573 ft 499 kts 144°
2026-04-30 22:25 39.89405 21.62652 33455 ft 500 kts 144°
2026-04-30 22:26 39.84152 21.68571 33177 ft 501 kts 144°
2026-04-30 22:26 39.81510 21.71548 33043 ft 501 kts 144°
2026-04-30 22:26 39.78875 21.74513 32903 ft 501 kts 144°
2026-04-30 22:27 39.76235 21.77482 32771 ft 502 kts 145°
2026-04-30 22:27 39.73596 21.80445 32606 ft 501 kts 144°
2026-04-30 22:27 39.68322 21.86351 32344 ft 500 kts 144°
2026-04-30 22:28 39.63081 21.92210 32056 ft 500 kts 144°
2026-04-30 22:28 39.60440 21.95158 31926 ft 501 kts 144°
2026-04-30 22:29 39.52516 22.03981 31547 ft 501 kts 144°
2026-04-30 22:29 39.49876 22.06917 31422 ft 501 kts 144°
2026-04-30 22:30 39.39292 22.18658 30915 ft 500 kts 144°
2026-04-30 22:31 39.31363 22.27424 30651 ft 500 kts 144°
2026-04-30 22:32 39.23429 22.36173 30393 ft 500 kts 144°
2026-04-30 22:32 39.18134 22.41986 30114 ft 499 kts 144°
2026-04-30 22:33 39.08474 22.52566 30158 ft 497 kts 144°
2026-04-30 22:35 38.95234 22.67008 30125 ft 499 kts 144°
2026-04-30 22:36 38.85519 22.77559 29295 ft 497 kts 144°
2026-04-30 22:36 38.82858 22.80453 28988 ft 493 kts 143°
2026-04-30 22:37 38.75056 22.88890 28176 ft 486 kts 144°
2026-04-30 22:37 38.72473 22.91672 27908 ft 484 kts 144°
2026-04-30 22:37 38.67383 22.97153 27387 ft 479 kts 144°
2026-04-30 22:38 38.62268 23.02656 26861 ft 475 kts 144°
2026-04-30 22:38 38.57260 23.08034 26362 ft 471 kts 144°
2026-04-30 22:39 38.54750 23.10718 26104 ft 470 kts 144°
2026-04-30 22:39 38.47270 23.18719 25367 ft 465 kts 144°
2026-04-30 22:40 38.39885 23.26624 24646 ft 459 kts 144°
2026-04-30 22:41 38.32585 23.34381 23943 ft 453 kts 144°
2026-04-30 22:41 38.27763 23.39490 23441 ft 449 kts 144°
2026-04-30 22:42 38.18248 23.49581 22305 ft 441 kts 144°
2026-04-30 22:43 38.13544 23.54550 21776 ft 437 kts 144°
2026-04-30 22:43 38.08881 23.59458 21260 ft 433 kts 144°
2026-04-30 22:44 38.04256 23.64323 20752 ft 430 kts 144°
2026-04-30 22:45 37.95146 23.73877 19777 ft 422 kts 144°
2026-04-30 22:45 37.90642 23.78585 19299 ft 418 kts 144°
2026-04-30 22:46 37.86584 23.83871 18818 ft 419 kts 133°
2026-04-30 22:47 37.79157 23.95025 17819 ft 412 kts 133°
2026-04-30 22:47 37.75473 24.00514 17291 ft 409 kts 133°
2026-04-30 22:48 37.71810 24.05987 16764 ft 405 kts 133°
2026-04-30 22:49 37.66368 24.14080 15978 ft 400 kts 133°
2026-04-30 22:49 37.60973 24.22077 15227 ft 396 kts 133°
2026-04-30 22:50 37.54802 24.33404 14257 ft 396 kts 110°
2026-04-30 22:51 37.53108 24.39992 13782 ft 394 kts 109°
2026-04-30 22:51 37.51406 24.46519 13254 ft 390 kts 110°
2026-04-30 22:52 37.50562 24.49738 12867 ft 385 kts 110°
2026-04-30 22:52 37.48895 24.56093 11802 ft 379 kts 110°
2026-04-30 22:53 37.47249 24.62361 10738 ft 374 kts 110°
2026-04-30 22:53 37.45681 24.68337 10466 ft 346 kts 110°
2026-04-30 22:53 37.44941 24.71158 10344 ft 333 kts 110°
2026-04-30 22:54 37.43538 24.76507 10034 ft 313 kts 110°
2026-04-30 22:55 37.41500 24.84210 8979 ft 307 kts 110°
2026-04-30 22:55 37.40167 24.89220 8216 ft 300 kts 110°
2026-04-30 22:56 37.38840 24.94216 7444 ft 298 kts 111°
2026-04-30 22:56 37.36894 25.01527 6338 ft 291 kts 110°
2026-04-30 22:57 37.35370 25.06015 5671 ft 282 kts 118°
2026-04-30 22:57 37.33639 25.10385 5112 ft 277 kts 117°
2026-04-30 22:58 37.31937 25.14703 4553 ft 276 kts 117°
2026-04-30 22:59 37.29433 25.21042 3908 ft 255 kts 117°
2026-04-30 22:59 37.27258 25.26525 3316 ft 228 kts 116°